Antrim, Nova Scotia

2:56 AM ADT on July 21, 2017 (GMT -0300)
Antrim

Weather History for 71395 - February, 2013

Change the Weather History Date:

Monday, February 25, 2013

  Actual Average Record
Temperature  
Mean Temperature 26 °F -  
Max Temperature 34 °F 36 °F - ()
Min Temperature 17 °F 20 °F - ()
Degree Days  
Heating Degree Days 40    
Moisture  
Dew Point 18 °F    
Average Humidity 77    
Maximum Humidity 93    
Minimum Humidity 39    
Precipitation  
Precipitation 0.00 in 0.16 in - ()
Sea Level Pressure  
Sea Level Pressure 29.95 in    
Wind  
Wind Speed 13 mph ()    
Max Wind Speed 20 mph    
Max Gust Speed 26 mph    
Visibility 15.0 miles    
Events      
T = Trace of Precipitation, MM = Missing Value Source: Averaged Metar Reports

Daily Weather History Graph

Daily Weather History Graph

Search for Another Location

Airport or City:

Trip Planner

Search our weather history database for the weather conditions in past years. The results will help you decide how hot, cold, wet, or windy it might be!

Date:

Astronomy

Feb. 25, 2013 Rise Set
Actual Time 6:58 AM AST 5:56 PM AST
Civil Twilight 6:28 AM AST 6:25 PM AST
Nautical Twilight 5:54 AM AST 6:59 PM AST
Astronomical Twilight 5:20 AM AST 7:33 PM AST
Moon 6:07 PM AST (2/25) 6:24 AM AST (2/25)
Length of Visible Light 11h 57m
Length of Day
10h 58m
Full, 100% of the Moon is Illuminated
Feb 25
Full
Feb 25
Full
Mar 4
Last Quarter
Mar 11
New
Mar 19
First Quarter

Hourly Weather History & Observations

Time (AST) Temp. Windchill Dew Point Humidity Pressure Visibility Wind Dir Wind Speed Gust Speed Precip Events Conditions
12:00 AM 19.4 °F 7.9 °F 17.6 °F 93% 29.78 in 15.0 mi NNE 10.4 mph - N/A   Overcast
1:00 AM 19.4 °F 7.9 °F 17.6 °F 93% 29.76 in 15.0 mi NNE 10.4 mph - N/A   Overcast
2:00 AM 19 °F - 17 °F 91% 29.77 in 15 mi NNE 13.8 mph - -   Overcast
2:00 AM 19.4 °F 5.5 °F 17.6 °F 93% 29.76 in 15.0 mi NNE 15.0 mph - N/A   Overcast
3:00 AM 19.4 °F 5.0 °F 17.6 °F 93% 29.76 in 15.0 mi NNE 16.1 mph - N/A   Overcast
4:00 AM 17.6 °F 4.3 °F 15.8 °F 93% 29.78 in 15.0 mi NNE 12.7 mph 19.6 mph N/A   Overcast
5:00 AM 17.6 °F 4.3 °F 15.8 °F 93% 29.80 in 15.0 mi NNE 12.7 mph 23.0 mph N/A   Overcast
6:00 AM 17.6 °F 2.7 °F 15.8 °F 93% 29.83 in 15.0 mi North 16.1 mph - N/A   Overcast
7:00 AM 17.6 °F 3.2 °F 15.8 °F 93% 29.85 in 15.0 mi North 15.0 mph - N/A   Overcast
8:00 AM 18 °F - 16 °F 90% 29.88 in 15 mi North 13.8 mph - -   Scattered Clouds
8:00 AM 17.6 °F 3.2 °F 15.8 °F 93% 29.88 in 15.0 mi North 15.0 mph - N/A   Scattered Clouds
9:00 AM 21.2 °F 6.8 °F 15.8 °F 80% 29.90 in 15.0 mi North 17.3 mph - N/A   Scattered Clouds
10:00 AM 24.8 °F 11.5 °F 17.6 °F 74% 29.92 in 15.0 mi North 17.3 mph 26.5 mph N/A   Scattered Clouds
11:00 AM 28.4 °F 16.2 °F 17.6 °F 64% 29.93 in 15.0 mi North 17.3 mph - N/A   Scattered Clouds
12:00 PM 30.2 °F 18.9 °F 17.6 °F 60% 29.94 in 15.0 mi NNE 16.1 mph 26.5 mph N/A   Partly Cloudy
1:00 PM 32.0 °F 20.8 °F 19.4 °F 60% 29.94 in 15.0 mi North 17.3 mph 26.5 mph N/A   Scattered Clouds
2:00 PM 34 °F - 18 °F 39% 29.96 in 15 mi North 18.4 mph - -   Clear
2:00 PM 33.8 °F 22.8 °F 17.6 °F 52% 29.96 in 15.0 mi North 18.4 mph 26.5 mph N/A   Mostly Cloudy
3:00 PM 33.8 °F 24.3 °F 19.4 °F 56% 29.99 in 15.0 mi NNE 13.8 mph 21.9 mph N/A   Mostly Cloudy
4:00 PM 33.8 °F 23.2 °F 19.4 °F 56% 30.01 in 15.0 mi North 17.3 mph - N/A   Mostly Cloudy
5:00 PM 30.2 °F 17.8 °F 19.4 °F 64% 30.04 in 15.0 mi North 19.6 mph 26.5 mph N/A   Scattered Clouds
6:00 PM 28.4 °F 17.5 °F 19.4 °F 69% 30.09 in 15.0 mi North 13.8 mph 20.7 mph N/A   Mostly Cloudy
7:00 PM 26.6 °F 15.2 °F 21.2 °F 80% 30.13 in 15.0 mi North 13.8 mph 20.7 mph N/A   Mostly Cloudy
8:00 PM 26 °F - 20 °F 69% 30.16 in 15 mi North 15.0 mph - -   Mostly Cloudy
8:00 PM 26.6 °F 15.7 °F 19.4 °F 74% 30.16 in 15.0 mi North 12.7 mph 21.9 mph N/A   Mostly Cloudy
9:00 PM 24.8 °F 14.0 °F 19.4 °F 80% 30.17 in 15.0 mi NNE 11.5 mph - N/A   Mostly Cloudy
10:00 PM 24.8 °F 15.3 °F 19.4 °F 80% 30.17 in 15.0 mi North 9.2 mph - N/A   Scattered Clouds
11:00 PM 23.0 °F 11.1 °F 17.6 °F 80% 30.17 in 15.0 mi NNE 12.7 mph - N/A   Partly Cloudy